Location: Applecreek Village
(41.3528°N, 81.4956°W)
Time: 05:35:29
(UTC+00:00)

Daily predictions for brighter satellites

Satellite Brightness Start Highest point End
(mag) Time Altitude Azimuth Time Altitude Azimuth Time Altitude Azimuth
PSLV R/B 3.4 00:00:52 10° S 00:04:55 82° WSW 00:08:58 10° NNW
Cosmos 407 Rocket 4.4 00:00:07 10° SW 00:05:07 47° WNW 00:10:06 10° N
RESURS DK-1 2.1 00:02:00 10° NNW 00:05:58 85° NE 00:05:58 85° NE
Okean 2 Rocket 2.9 00:03:37 10° S 00:08:00 73° E 00:08:01 73° E
Resurs 01 Rocket 4.1 00:12:18 11° N 00:12:18 11° N 00:12:26 10° N
COSMOS 2406 4.3 00:04:20 10° N 00:07:52 28° NNE 00:07:52 28° NNE
Nadezhda 4 Rocket 3.8 00:03:30 10° N 00:09:49 76° E 00:16:02 10° SSE
ATLAS 2AS CENTAUR R/B 4.2 00:06:36 10° NNW 00:10:49 18° NNE 00:10:49 18° NNE
ISS -2.2 00:11:45 10° W 00:14:17 32° NW 00:14:17 32° NW
SJ 16-02 1.4 00:11:26 10° SSW 00:15:05 63° S 00:15:05 63° S
Helios 1A Rocket 4.1 00:17:58 26° NW 00:19:00 32° WNW 00:22:03 10° SW
Cosmos 1536 Rocket 3.5 00:15:02 10° N 00:19:14 78° NW 00:19:14 78° NW
Cosmos 2195 Rocket 4.4 00:17:20 10° N 00:23:38 65° E 00:25:05 50° SE
ATLAS 5 CENTAUR R/B 3.5 00:19:58 10° NW 00:24:19 34° WSW 00:29:29 10° S
Cosmos 1428 Rocket 4.4 00:25:41 10° N 00:31:58 88° W 00:38:17 10° S
Cosmos 371 Rocket 3.9 00:28:14 10° SSW 00:31:39 48° SSW 00:31:39 48° SSW
Cosmos 2058 4.2 00:29:26 10° NNW 00:33:06 37° W 00:36:47 10° SSW
Cosmos 489 Rocket 4.3 00:28:25 10° NNW 00:34:42 76° ENE 00:34:48 76° E
USA 281 3.6 01:07:16 55° NNW 01:07:16 55° NNW 01:12:15 10° NNW
Cosmos 2082 Rocket 3.8 01:23:52 10° NW 01:28:04 30° W 01:28:04 30° W
Cosmos 2344 4.2 01:39:06 10° NW 01:45:44 65° NW 01:45:44 65° NW
Cosmos 2278 Rocket 4.5 08:43:28 17° SE 08:43:28 17° SE 08:44:45 10° SE
Cosmos 2237 Rocket 4.3 08:43:08 21° NE 08:43:08 21° NE 08:45:00 10° NE
USA 267 3.9 08:48:05 10° NE 08:53:32 51° ESE 08:53:32 51° ESE
ADEOS Rocket 4.5 09:13:16 10° N 09:16:31 30° N 09:16:31 30° N
ACS3 Solar Sail 3.9 09:19:42 10° N 09:20:28 14° N 09:20:28 14° N
USA 234 4.2 09:23:54 10° E 09:29:51 39° NNE 09:31:50 31° N
Cosmos 1864 Rocket 4.5 09:30:11 48° N 09:32:04 80° E 09:38:25 10° S
Cosmos 1420 Rocket 4.4 09:38:43 56° NNE 09:38:43 56° NNE 09:42:54 10° NNE
Cosmos 2251 Rocket 4.0 09:38:23 47° NNE 09:39:34 57° ENE 09:44:49 10° SSE
SL-16 R/B 3.4 09:37:58 10° S 09:43:12 40° ESE 09:48:27 10° NE
PAYLOAD A 4.0 09:40:42 10° NNE 09:45:53 82° ENE 09:45:53 82° ENE
Cosmos 1725 Rocket 3.9 09:40:05 10° N 09:46:26 88° W 09:52:44 10° S
Cosmos 2233 Rocket 4.3 09:42:07 10° N 09:48:24 66° E 09:54:34 10° SSE
BREEZE-M DEB (TANK) 4.3 09:54:02 18° ESE 09:54:02 18° ESE 09:55:22 10° E
CZ-2C R/B 3.6 09:55:41 10° N 09:58:22 31° N 09:58:22 31° N
SL-08 R/B 4.3 10:01:07 10° N 10:07:17 76° W 10:13:30 10° S
Cosmos 1802 Rocket 4.0 10:06:58 45° NW 10:08:21 53° W 10:14:21 10° SSW
Cosmos 1190 Rocket 3.8 10:15:29 32° NNW 10:17:56 79° WSW 10:23:08 10° SSE
SJ 16-02 1.3 10:18:05 32° N 10:20:00 77° ENE 10:24:15 10° SSE
Aureole 3 4.1 10:14:05 10° S 10:20:09 86° E 10:25:15 10° N
Cosmos 676 Rocket 4.3 10:15:43 13° NNW 10:20:20 66° ENE 10:25:28 10° SSE
SKYMED 2 4.4 10:16:13 10° SSE 10:20:24 49° ENE 10:24:36 10° N
Cosmos 2278 Rocket 3.6 10:25:22 21° SW 10:25:22 21° SW 10:27:51 10° SSW
COSMO-SKYMED 1 4.0 10:19:27 10° SE 10:23:12 35° ENE 10:26:59 10° N
Cosmos 2237 Rocket 3.3 10:24:59 27° NW 10:24:59 27° NW 10:28:43 10° N
Cosmos 1943 Rocket 3.8 10:28:04 16° SW 10:28:04 16° SW 10:29:38 10° SSW
Cosmos 2056 Rocket 3.5 10:21:55 13° SSW 10:26:42 64° WNW 10:32:04 10° NNE
ARGOS 4.4 10:23:23 10° N 10:26:10 24° NNW 10:26:10 24° NNW
USA 229 DEB 3.4 10:25:17 10° SSW 10:31:04 81° ESE 10:37:33 10° NE
Cosmos 2016 Rocket 4.3 10:25:09 10° NNW 10:31:05 42° W 10:36:55 10° SSW
USA 229 3.5 10:25:31 10° SSW 10:31:17 80° ESE 10:37:45 10° NE
Cosmos 1954 Rocket 3.8 10:28:36 21° NNW 10:32:06 72° WSW 10:37:12 10° S
Cosmos 2369 Rocket 3.1 10:29:49 10° NNW 10:35:21 50° ENE 10:40:52 10° SE
USA 267 3.5 10:31:11 10° NE 10:37:25 49° NNW 10:40:54 26° W
Lacrosse 5 rocket 3.5 10:38:21 10° N 10:39:37 12° NNE 10:40:52 10° NE
IRS-1D 3.3 10:36:41 10° N 10:41:38 75° WNW 10:46:31 10° SSW
Cosmos 1484 Rocket 4.4 10:39:52 10° NNE 10:43:06 33° E 10:46:17 10° SSE
Cosmos 1400 Rocket 3.8 10:39:55 10° N 10:43:28 43° ENE 10:46:57 10° SSE
Cosmos 1371 Rocket 4.3 10:41:14 10° SW 10:46:16 44° WNW 10:51:22 10° N
FengYun 1-2 T 4.3 10:42:47 10° N 10:48:11 52° WNW 10:53:37 10° SW
Cosmos 1869 3.1 10:47:38 29° NW 10:49:04 48° W 10:52:27 10° S
Cosmos 371 Rocket 3.3 10:45:35 15° NNW 10:49:31 61° WSW 10:54:15 10° S
Helios 1A Rocket 2.3 10:46:38 10° SSE 10:49:59 89° WSW 10:53:23 10° NNW
ATLAS 3B R/B 2.9 10:44:38 10° SW 10:52:06 76° NW 11:00:00 10° NNE
Cosmos 968 Rocket 4.0 10:46:55 10° NNW 10:52:08 62° ENE 10:57:18 10° SSE
Cosmos 1812 1.9 10:53:54 24° NNW 10:55:27 60° W 10:58:17 10° S
CZ-4 R/B 3.8 10:52:11 10° N 10:56:55 58° WNW 11:01:32 10° SSW
Cosmos 304 Rocket 4.0 10:53:23 15° NW 10:57:06 48° WSW 11:01:40 10° S
CENTAUR R/B 3.6 10:49:12 10° NNW 10:57:40 71° NE 11:07:08 10° SE
Cosmos 2151 Rocket 3.9 10:54:57 10° N 10:59:27 70° E 11:03:52 10° SSE
Meteor 1-21 Rocket 4.2 10:55:52 10° SSW 11:01:34 66° WNW 11:07:12 10° N
Cosmos 1110 Rocket 4.0 10:56:56 10° SSW 11:02:13 83° WNW 11:07:33 10° NNE
Cosmos 1378 Rocket 3.5 11:01:48 10° SSW 11:05:59 57° W 11:10:12 10° N
Sich 1 Rocket 4.4 11:02:34 10° N 11:07:00 53° E 11:11:22 10° SSE
NOAA 12 4.2 11:04:25 10° N 11:09:35 52° WNW 11:14:42 10° SW
Cosmos 2242 Rocket 4.2 11:06:05 10° SW 11:10:01 32° WNW 11:14:01 10° NNW
Cosmos 1656 Rocket 4.0 11:05:54 10° NW 11:11:15 44° WSW 11:16:34 10° S
USA 234 3.3 11:05:57 10° SE 11:12:31 78° SW 11:19:05 10° NW
Okean 1 Rocket 3.4 11:12:09 10° N 11:16:27 67° E 11:20:43 10° SSE
Cosmos 332 Rocket 4.1 11:13:35 10° NNW 11:18:23 70° ENE 11:23:07 10° SSE
CZ-3 R/B 3.2 11:07:13 10° WSW 11:18:25 32° SSW 11:23:14 10° SE
Meteor 2-17 Rocket 4.4 11:14:42 10° S 11:20:45 83° W 11:26:53 10° N
USA 306 4.5 11:21:57 11° NW 11:23:32 13° N 11:25:28 10° NNE
Cosmos 1441 Rocket 4.1 11:23:42 10° S 11:26:54 46° E 11:30:07 10° NNE
SL-16 R/B 2.9 11:22:21 10° WSW 11:27:21 31° NW 11:32:22 10° N
IGS 5A 3.3 11:26:37 10° NNE 11:30:39 88° W 11:34:38 10° SSW
Cosmos 1452 Rocket 3.6 11:30:39 10° SSW 11:35:47 57° WNW 11:40:57 10° NNE
H-2A R/B 4.4 11:33:28 10° SSW 11:35:57 16° SSE 11:40:48 10° SE
ARIANE 5 R/B 3.6 11:37:20 10° NNE 11:42:18 51° E 11:47:18 10° S
Cosmos 1850 Rocket 4.1 11:38:48 10° NNW 11:43:52 58° WSW 11:48:55 10° S
SAR-Lupe-4 4.2 11:41:07 10° NNE 11:44:39 62° ESE 11:48:09 10° S
Cosmos 1464 Rocket 4.1 11:39:58 10° NNW 11:45:53 51° W 11:51:46 10° SSW
Cosmos 1975 Rocket 4.1 11:43:39 10° SSE 11:47:46 49° E 11:51:55 10° NNE
NOSS 2-2 (C) 3.9 11:44:54 10° NNW 11:49:04 83° NE 11:54:56 10° SE
Meteor 2-1 Rocket 4.3 11:43:24 10° NNW 11:49:15 70° W 11:54:57 10° S
